Location: Moscow
(55.7500°N, 37.5830°E)
Time: 17:56:07
(UTC+03:00)

A-11 Canister half - Pass Details

Date: 03 December 2021
Orbit: 1516 x 1684 km, 47.2° (Epoch: 24 January)

Event Time Altitude Azimuth Distance (km) Brightness Sun altitude
Rises 06:38:17 0° 194° (SSW) 4,758 11.6 -15.6°
Reaches altitude 10° 06:42:14 10° 180° (S) 3,805 11.3 -15.0°
Maximum altitude 06:49:02 22° 135° (SE) 3,012 11.4 -14.1°
Drops below altitude 10° 06:55:59 10° 90° (E) 3,906 12.3 -13.2°
Sets 07:00:05 0° 77° (ENE) 4,917 12.6 -12.7°
